 |
 |
|
 |
 |
 |
 |
| Al di la della Luna; Beyond the Moon; Astrophotography; Astrofotografia; Danilo Pivato |
| |
|
| |
| |
|
|
|
|
|
|
|
|
|
|
|
| 1985 |
Orbital Elements
Epoch 1994 Feb. 17.0 TT = JDT
T 1986 Feb 9. TT
q 0. (2000.0) P Q
z +0.9671429 Peri. 0.585978 -0. -0.
+/-0. Node 58.42008 -0. -0.
e 0.9967142 Incl. 162.262690 +0. -0
Return in the future: 08/2061. |
|
| |
|
|
|
|
 |
| |
|
|
|
|
|
|
|
|
|
1985.12.03 |
1985.12.12 |
1985.12.15 |
1985.12.15 |
1985.01.07 55mm |
| |
|
|
|
|
| |
|
|
|
|
|
|
|
|
|
1985.01.07 135mm |
1985.03.18 55mm |
1985.03.18 135mm |
|
|
| |
|
|
|
|
| |
|
|
|
|
| |
|
|
|
|
| |
|
|
|
|
 |
| |
|
|
|
|
| |
|
|
|
|
|
|
|
|
Photo: Danilo Pivato © Copyright: - Images & texts 2004 - All rights reserved